sat.trackr.live / text

‹ back to catalog

STARLINK-35621

NORAD 66156 · 2025-240L

PAYLOAD ACTIVE UNKNOWN

§ Identity

Operator
Country
US
Launch date
2025-10-25
Launch site
AFWTR
Launch vehicle
Mass (kg)
RCS (m²)

Purposes: comms

External: N2YO · Heavens-Above · Gunter

§ Orbital elements

Epoch: 2026-05-25T03:56:36.935232Z

Period
94.10 min
Inclination
53.1602°
Eccentricity
0.0001328
Mean motion
15.30206279 rev/d
Perigee alt
474.3 km
Apogee alt
476.1 km
Semi-major
6,853.3 km
B*
5.6686e-4
RAAN
67.8385°
Arg perigee
85.7861°
Mean anomaly
274.3292°
Rev number
3,369

§ Raw data

STARLINK-356211 66156U 25240L   26145.16431638  .00016470  00000+0  56686-3 0  99982 66156  53.1602  67.8385 0001328  85.7861 274.3292 15.30206279 33694

JSON: /api/v1/satellites/66156 · /tle

For live sub-satellite position, see the globe view (requires WebGL).

§ Visibility from observer

Set your observer location to see the next 7 days of passes ≥ 10°. The values pass through the URL so the page stays shareable.

No JS? Fill the form by hand. The geolocation button needs JavaScript.